(°C)
(°C)
Ν
Ν
Ν
ΝΝΑ
ΝΝΑ
ΝΝΑ
Ν
(χλμ / ω)
6-18
6-17
6-21
6-21
6-22
6-22
7-23
(χιλιοστά)
0
0
0
0
0
0
0
(%)
0
0
0
0
0
0
0

Ανύψωση ήλιου

/ -35.5°
sun-icon
UV 0
07:56
18:03
Φθίνων αμφίκυρτος (φάση σελήνης) (201°)
18:40
09:37

METAR για 55.27°Β 86.11°Α (UNEE)

Χρόνος Συνθήκες Θερμοκρασία/
Σημείο δρόσου
Άνεμος Ορατότητα Καιρός Νέφη Πίεση Αλλαγή Ανεπεξέργαστο
VFR 6°C / -4°C 150º 6kt >10km - Clouds and Visibility OK 1011 No Significant change UNEE 212000Z 15003MPS CAVOK 06/M04 Q1011 R23/CLRD60 NOSIG RMK QFE735
VFR 7°C / -4°C 150º 6kt >10km - Clouds and Visibility OK 1011 No Significant change UNEE 211930Z 15003MPS CAVOK 07/M04 Q1011 R23/CLRD60 NOSIG RMK QFE735
VFR 7°C / -4°C 140º 6kt >10km - Clouds and Visibility OK 1011 No Significant change UNEE 211900Z 14003MPS CAVOK 07/M04 Q1011 R23/CLRD60 NOSIG RMK QFE735
VFR 7°C / -4°C 140º 6kt >10km - Clouds and Visibility OK 1011 No Significant change UNEE 211830Z 14003MPS CAVOK 07/M04 Q1011 R23/CLRD60 NOSIG RMK QFE735
VFR 8°C / -4°C 150º 6kt >10km - Clouds and Visibility OK 1011 No Significant change UNEE 211800Z 15003MPS CAVOK 08/M04 Q1011 R23/CLRD60 NOSIG RMK QFE735
VFR 9°C / -4°C 160º 6kt >10km - Clouds and Visibility OK 1011 No Significant change UNEE 211730Z 16003MPS CAVOK 09/M04 Q1011 R23/CLRD60 NOSIG RMK QFE735
VFR 9°C / -4°C 150º 6kt >10km - Clouds and Visibility OK 1011 No Significant change UNEE 211700Z 15003MPS CAVOK 09/M04 Q1011 R23/CLRD60 NOSIG RMK QFE736
VFR 9°C / -3°C 140º 6kt >10km - Clouds and Visibility OK 1011 No Significant change UNEE 211630Z 14003MPS CAVOK 09/M03 Q1011 R23/CLRD60 NOSIG RMK QFE736
VFR 9°C / -3°C 150º 6kt >10km - Clouds and Visibility OK 1011 No Significant change UNEE 211600Z 15003MPS CAVOK 09/M03 Q1011 R23/CLRD60 NOSIG RMK QFE736
VFR 9°C / -3°C 160º 6kt >10km - Clouds and Visibility OK 1012 No Significant change UNEE 211530Z 16003MPS CAVOK 09/M03 Q1012 R23/CLRD60 NOSIG RMK QFE736
VFR 9°C / -3°C 140º 4kt >10km - Clouds and Visibility OK 1012 No Significant change UNEE 211500Z 14002MPS CAVOK 09/M03 Q1012 R23/CLRD60 NOSIG RMK QFE736
VFR 9°C / -3°C 140º 4kt >10km - Clouds and Visibility OK 1012 No Significant change UNEE 211430Z 14002MPS CAVOK 09/M03 Q1012 R23/CLRD60 NOSIG RMK QFE736
VFR 9°C / -3°C 150º 6kt >10km - Clouds and Visibility OK 1012 No Significant change UNEE 211400Z 15003MPS CAVOK 09/M03 Q1012 R23/CLRD60 NOSIG RMK QFE736
VFR 9°C / -3°C 140º 6kt >10km - Clouds and Visibility OK 1012 No Significant change UNEE 211330Z 14003MPS CAVOK 09/M03 Q1012 R23/CLRD60 NOSIG RMK QFE736
VFR 10°C / -4°C 150º 4kt >10km - Clouds and Visibility OK 1012 No Significant change UNEE 211300Z 15002MPS CAVOK 10/M04 Q1012 R23/CLRD60 NOSIG RMK QFE736
VFR 11°C / -3°C 160º 6kt >10km - Clouds and Visibility OK 1012 No Significant change UNEE 211230Z 16003MPS CAVOK 11/M03 Q1012 R23/CLRD60 NOSIG RMK QFE736
VFR 11°C / -3°C 160º 6kt >10km - Clouds and Visibility OK 1012 No Significant change UNEE 211200Z 16003MPS CAVOK 11/M03 Q1012 R23/CLRD60 NOSIG RMK QFE736
VFR 12°C / -3°C 160º 6kt >10km - Clouds and Visibility OK 1012 No Significant change UNEE 211130Z 16003MPS CAVOK 12/M03 Q1012 R23/CLRD60 NOSIG RMK QFE736
VFR 12°C / -3°C 160º 6kt >10km - Clouds and Visibility OK 1011 No Significant change UNEE 211100Z 16003MPS CAVOK 12/M03 Q1011 R23/CLRD60 NOSIG RMK QFE736
VFR 13°C / -3°C 170º 6kt >10km - Clouds and Visibility OK 1011 No Significant change UNEE 211030Z 17003MPS CAVOK 13/M03 Q1011 R23/CLRD60 NOSIG RMK QFE736
VFR 14°C / -3°C 170º 6kt >10km - Clouds and Visibility OK 1011 No Significant change UNEE 211000Z 17003MPS CAVOK 14/M03 Q1011 R23/CLRD60 NOSIG RMK QFE736
VFR 15°C / -3°C 170º 8kt >10km - Clouds and Visibility OK 1011 No Significant change UNEE 210930Z 17004MPS CAVOK 15/M03 Q1011 R23/CLRD60 NOSIG RMK QFE736
VFR 15°C / -3°C 160º 10kt >10km - Clouds and Visibility OK 1011 No Significant change UNEE 210900Z 16005MPS CAVOK 15/M03 Q1011 R23/CLRD60 NOSIG RMK QFE736
VFR 16°C / -4°C 160º 10kt >10km - Clouds and Visibility OK 1012 No Significant change UNEE 210830Z 16005MPS CAVOK 16/M04 Q1012 R23/CLRD60 NOSIG RMK QFE736

VFR

6°C / -4°C

[Περισσότερο]
Άνεμος 150º 6kt
Ορατότητα >10km
Καιρός -
Νέφη Clouds and Visibility OK
Πίεση 1011
Αλλαγή No Significant change
Ανεπεξέργαστο UNEE 212000Z 15003MPS CAVOK 06/M04 Q1011 R23/CLRD60 NOSIG RMK QFE735

VFR

7°C / -4°C

[Περισσότερο]
Άνεμος 150º 6kt
Ορατότητα >10km
Καιρός -
Νέφη Clouds and Visibility OK
Πίεση 1011
Αλλαγή No Significant change
Ανεπεξέργαστο UNEE 211930Z 15003MPS CAVOK 07/M04 Q1011 R23/CLRD60 NOSIG RMK QFE735

VFR

7°C / -4°C

[Περισσότερο]
Άνεμος 140º 6kt
Ορατότητα >10km
Καιρός -
Νέφη Clouds and Visibility OK
Πίεση 1011
Αλλαγή No Significant change
Ανεπεξέργαστο UNEE 211900Z 14003MPS CAVOK 07/M04 Q1011 R23/CLRD60 NOSIG RMK QFE735

VFR

7°C / -4°C

[Περισσότερο]
Άνεμος 140º 6kt
Ορατότητα >10km
Καιρός -
Νέφη Clouds and Visibility OK
Πίεση 1011
Αλλαγή No Significant change
Ανεπεξέργαστο UNEE 211830Z 14003MPS CAVOK 07/M04 Q1011 R23/CLRD60 NOSIG RMK QFE735

VFR

8°C / -4°C

[Περισσότερο]
Άνεμος 150º 6kt
Ορατότητα >10km
Καιρός -
Νέφη Clouds and Visibility OK
Πίεση 1011
Αλλαγή No Significant change
Ανεπεξέργαστο UNEE 211800Z 15003MPS CAVOK 08/M04 Q1011 R23/CLRD60 NOSIG RMK QFE735

VFR

9°C / -4°C

[Περισσότερο]
Άνεμος 160º 6kt
Ορατότητα >10km
Καιρός -
Νέφη Clouds and Visibility OK
Πίεση 1011
Αλλαγή No Significant change
Ανεπεξέργαστο UNEE 211730Z 16003MPS CAVOK 09/M04 Q1011 R23/CLRD60 NOSIG RMK QFE735

VFR

9°C / -4°C

[Περισσότερο]
Άνεμος 150º 6kt
Ορατότητα >10km
Καιρός -
Νέφη Clouds and Visibility OK
Πίεση 1011
Αλλαγή No Significant change
Ανεπεξέργαστο UNEE 211700Z 15003MPS CAVOK 09/M04 Q1011 R23/CLRD60 NOSIG RMK QFE736

VFR

9°C / -3°C

[Περισσότερο]
Άνεμος 140º 6kt
Ορατότητα >10km
Καιρός -
Νέφη Clouds and Visibility OK
Πίεση 1011
Αλλαγή No Significant change
Ανεπεξέργαστο UNEE 211630Z 14003MPS CAVOK 09/M03 Q1011 R23/CLRD60 NOSIG RMK QFE736

VFR

9°C / -3°C

[Περισσότερο]
Άνεμος 150º 6kt
Ορατότητα >10km
Καιρός -
Νέφη Clouds and Visibility OK
Πίεση 1011
Αλλαγή No Significant change
Ανεπεξέργαστο UNEE 211600Z 15003MPS CAVOK 09/M03 Q1011 R23/CLRD60 NOSIG RMK QFE736

VFR

9°C / -3°C

[Περισσότερο]
Άνεμος 160º 6kt
Ορατότητα >10km
Καιρός -
Νέφη Clouds and Visibility OK
Πίεση 1012
Αλλαγή No Significant change
Ανεπεξέργαστο UNEE 211530Z 16003MPS CAVOK 09/M03 Q1012 R23/CLRD60 NOSIG RMK QFE736

VFR

9°C / -3°C

[Περισσότερο]
Άνεμος 140º 4kt
Ορατότητα >10km
Καιρός -
Νέφη Clouds and Visibility OK
Πίεση 1012
Αλλαγή No Significant change
Ανεπεξέργαστο UNEE 211500Z 14002MPS CAVOK 09/M03 Q1012 R23/CLRD60 NOSIG RMK QFE736

VFR

9°C / -3°C

[Περισσότερο]
Άνεμος 140º 4kt
Ορατότητα >10km
Καιρός -
Νέφη Clouds and Visibility OK
Πίεση 1012
Αλλαγή No Significant change
Ανεπεξέργαστο UNEE 211430Z 14002MPS CAVOK 09/M03 Q1012 R23/CLRD60 NOSIG RMK QFE736

VFR

9°C / -3°C

[Περισσότερο]
Άνεμος 150º 6kt
Ορατότητα >10km
Καιρός -
Νέφη Clouds and Visibility OK
Πίεση 1012
Αλλαγή No Significant change
Ανεπεξέργαστο UNEE 211400Z 15003MPS CAVOK 09/M03 Q1012 R23/CLRD60 NOSIG RMK QFE736

VFR

9°C / -3°C

[Περισσότερο]
Άνεμος 140º 6kt
Ορατότητα >10km
Καιρός -
Νέφη Clouds and Visibility OK
Πίεση 1012
Αλλαγή No Significant change
Ανεπεξέργαστο UNEE 211330Z 14003MPS CAVOK 09/M03 Q1012 R23/CLRD60 NOSIG RMK QFE736

VFR

10°C / -4°C

[Περισσότερο]
Άνεμος 150º 4kt
Ορατότητα >10km
Καιρός -
Νέφη Clouds and Visibility OK
Πίεση 1012
Αλλαγή No Significant change
Ανεπεξέργαστο UNEE 211300Z 15002MPS CAVOK 10/M04 Q1012 R23/CLRD60 NOSIG RMK QFE736

VFR

11°C / -3°C

[Περισσότερο]
Άνεμος 160º 6kt
Ορατότητα >10km
Καιρός -
Νέφη Clouds and Visibility OK
Πίεση 1012
Αλλαγή No Significant change
Ανεπεξέργαστο UNEE 211230Z 16003MPS CAVOK 11/M03 Q1012 R23/CLRD60 NOSIG RMK QFE736

VFR

11°C / -3°C

[Περισσότερο]
Άνεμος 160º 6kt
Ορατότητα >10km
Καιρός -
Νέφη Clouds and Visibility OK
Πίεση 1012
Αλλαγή No Significant change
Ανεπεξέργαστο UNEE 211200Z 16003MPS CAVOK 11/M03 Q1012 R23/CLRD60 NOSIG RMK QFE736

VFR

12°C / -3°C

[Περισσότερο]
Άνεμος 160º 6kt
Ορατότητα >10km
Καιρός -
Νέφη Clouds and Visibility OK
Πίεση 1012
Αλλαγή No Significant change
Ανεπεξέργαστο UNEE 211130Z 16003MPS CAVOK 12/M03 Q1012 R23/CLRD60 NOSIG RMK QFE736

VFR

12°C / -3°C

[Περισσότερο]
Άνεμος 160º 6kt
Ορατότητα >10km
Καιρός -
Νέφη Clouds and Visibility OK
Πίεση 1011
Αλλαγή No Significant change
Ανεπεξέργαστο UNEE 211100Z 16003MPS CAVOK 12/M03 Q1011 R23/CLRD60 NOSIG RMK QFE736

VFR

13°C / -3°C

[Περισσότερο]
Άνεμος 170º 6kt
Ορατότητα >10km
Καιρός -
Νέφη Clouds and Visibility OK
Πίεση 1011
Αλλαγή No Significant change
Ανεπεξέργαστο UNEE 211030Z 17003MPS CAVOK 13/M03 Q1011 R23/CLRD60 NOSIG RMK QFE736

VFR

14°C / -3°C

[Περισσότερο]
Άνεμος 170º 6kt
Ορατότητα >10km
Καιρός -
Νέφη Clouds and Visibility OK
Πίεση 1011
Αλλαγή No Significant change
Ανεπεξέργαστο UNEE 211000Z 17003MPS CAVOK 14/M03 Q1011 R23/CLRD60 NOSIG RMK QFE736

VFR

15°C / -3°C

[Περισσότερο]
Άνεμος 170º 8kt
Ορατότητα >10km
Καιρός -
Νέφη Clouds and Visibility OK
Πίεση 1011
Αλλαγή No Significant change
Ανεπεξέργαστο UNEE 210930Z 17004MPS CAVOK 15/M03 Q1011 R23/CLRD60 NOSIG RMK QFE736

VFR

15°C / -3°C

[Περισσότερο]
Άνεμος 160º 10kt
Ορατότητα >10km
Καιρός -
Νέφη Clouds and Visibility OK
Πίεση 1011
Αλλαγή No Significant change
Ανεπεξέργαστο UNEE 210900Z 16005MPS CAVOK 15/M03 Q1011 R23/CLRD60 NOSIG RMK QFE736

VFR

16°C / -4°C

[Περισσότερο]
Άνεμος 160º 10kt
Ορατότητα >10km
Καιρός -
Νέφη Clouds and Visibility OK
Πίεση 1012
Αλλαγή No Significant change
Ανεπεξέργαστο UNEE 210830Z 16005MPS CAVOK 16/M04 Q1012 R23/CLRD60 NOSIG RMK QFE736

TAF για 55.27°Β 86.11°Α (UNEE)

From till


From till Wind 160º 6kt. Gust 16kt. Visibility 10km or more. Broken Clouds 4000ft.
Becoming from till Wind 220º 12kt. Gust 25kt. Visibility 10km or more. Broken Clouds 4000ft.

Ανεπεξέργαστο: TAF UNEE 212000Z 2121/2221 16003G08MPS 9999 BKN040CB BECMG 2203/2205 22006G13MPS

Τρέχουσες εικόνες δορυφόρου και βροχής για 55.27°Β 86.11°Α

Η ένδειξη τοποθεσίας τοποθετείται στο 55.27°Β 86.11°Α. [Περισσότερο]

Οι δορυφορικές εικόνες σε πραγματικό χρόνο συνδυάζουν ορατό φως κατά τη διάρκεια της ημέρας με υπέρυθρη ακτινοβολία κατά τη διάρκεια της νύχτας. Κατά τη διάρκεια της νύχτας, η εικόνα δεν είναι σκοτεινή μιας και η υπέρυθρη ακτινοβολία μπορεί να εντοπίσει τις διαφορές στη θερμοκρασία. Δυστυχώς, είναι δύσκολο να ξεχωρίσουν οι χαμηλές νεφώσεις και η ομίχλη από τις θερμοκρασίες εδάφους και έτσι μπορεί να είναι σχετικά αόρατα κατά τη διάρκεια της νύχτας. Οι εικόνες από τον δορυφόρο Meteosat για την Ευρώπη ενημερώνονται σε πραγματικό χρόνο κάθε 5 λεπτά. Οι εικόνες από τους δορυφόρους GOES-16/GOES-17 (Βόρεια & Λατινική Αμερική) και Himawari (Ασία) ενημερώνονται κάθε 10 λεπτά.

Πνευματική ιδιοκτησία 2021 EUMETSAT / meteoblue. / Πνευματική ιδιοκτησία 2021 meteoblue

Ραντάρ και πρόγνωση υετού μικρής δειάρκειας για 55.27°Β 86.11°Α

Ψιλοβρέχει
Φως
Μέτρια
Βαριά
Πολύ βαρύ
Χαλάζι

Ο δείκτης θέσης τοποθετείται στο 55.27°Β 86.11°Α. Αυτή η κινούμενη εικόνα δείχνει την ραντάρ βροχόπτωσης για την τελευταία ώρα, καθώς και 1πρόγνωση h. Το ψιλόβροχο ή το ελαφρύ χιόνι μπορεί να είναι αόρατο για το ραντάρ. Η ένταση της βροχόπτωσης είναι χρωματικά κωδικοποιημένη και κυμαίνεται από γαλάζιο έως πορτοκαλί.